• In Russia
  • List of Countries
  • For 7 days
  • Water Temperature
  • Satellite Maps
  • Weather Map
  • Weather Widgets
  • user-avatar
    Login

    Hourly Weather Bregenz

    Today, 26 September, Tuesday

    Time Temperature Precipitation Wind Pressure Humidity
    00:00 +5°C° 0 mm 1 mps 648 mmHg 86%
    01:00 +5°C° 0 mm 1 mps 648 mmHg 85%
    02:00 +5°C° 0 mm 1 mps 648 mmHg 85%
    03:00 +5°C° 0 mm 1 mps 648 mmHg 85%
    04:00 +5°C° 0 mm 1 mps 647 mmHg 86%
    05:00 +5°C° 0 mm 1 mps 648 mmHg 85%
    06:00 +5°C° 0 mm 1 mps 648 mmHg 85%
    07:00 +5°C° 0 mm 1 mps 648 mmHg 84%
    08:00 +8°C° 0 mm 1 mps 649 mmHg 76%
    09:00 +10°C° 0 mm 1 mps 650 mmHg 69%
    10:00 +12°C° 0 mm 0 mps 650 mmHg 61%
    11:00 +14°C° 0 mm 1 mps 650 mmHg 59%
    12:00 +14°C° 0 mm 1 mps 650 mmHg 56%
    13:00 +15°C° 0 mm 1 mps 650 mmHg 54%
    14:00 +15°C° 0.1 mm 1 mps 650 mmHg 58%
    15:00 +14°C° 0.1 mm 1 mps 650 mmHg 62%
    16:00 +13°C° 0.1 mm 1 mps 650 mmHg 66%
    17:00 +12°C° 0.1 mm 1 mps 650 mmHg 74%
    18:00 +10°C° 0.1 mm 1 mps 650 mmHg 82%
    19:00 +8°C° 0.1 mm 1 mps 649 mmHg 90%
    20:00 +8°C° 0.1 mm 1 mps 649 mmHg 91%
    21:00 +8°C° 0.1 mm 1 mps 650 mmHg 91%
    22:00 +8°C° 0.1 mm 1 mps 650 mmHg 92%
    23:00 +8°C° 0 mm 1 mps 650 mmHg 91%

    Tomorrow, 27 September, Wednesday

    Time Temperature Precipitation Wind Pressure Humidity
    00:00 +8°C° 0 mm 1 mps 650 mmHg 91%
    01:00 +8°C° 0 mm 1 mps 650 mmHg 90%
    02:00 +7°C° 0 mm 1 mps 650 mmHg 90%
    03:00 +7°C° 0 mm 1 mps 649 mmHg 90%
    04:00 +7°C° 0 mm 1 mps 649 mmHg 91%
    05:00 +7°C° 0 mm 1 mps 650 mmHg 90%
    06:00 +7°C° 0 mm 1 mps 650 mmHg 89%
    07:00 +7°C° 0 mm 1 mps 650 mmHg 89%
    08:00 +9°C° 0 mm 1 mps 651 mmHg 81%
    09:00 +11°C° 0 mm 1 mps 651 mmHg 74%
    10:00 +13°C° 0 mm 0 mps 652 mmHg 67%
    11:00 +14°C° 0.1 mm 1 mps 652 mmHg 64%
    12:00 +15°C° 0.1 mm 1 mps 652 mmHg 61%
    13:00 +16°C° 0.1 mm 1 mps 652 mmHg 58%
    14:00 +16°C° 0.4 mm 1 mps 652 mmHg 62%
    15:00 +15°C° 0.4 mm 1 mps 651 mmHg 66%
    16:00 +15°C° 0.4 mm 1 mps 651 mmHg 70%
    17:00 +13°C° 0.3 mm 1 mps 651 mmHg 76%
    18:00 +11°C° 0.3 mm 1 mps 651 mmHg 82%
    19:00 +9°C° 0.3 mm 1 mps 650 mmHg 88%
    20:00 +8°C° 0 mm 1 mps 651 mmHg 88%
    21:00 +8°C° 0 mm 1 mps 651 mmHg 89%
    22:00 +7°C° 0 mm 2 mps 651 mmHg 89%
    23:00 +6°C° 0 mm 2 mps 651 mmHg 89%

    Day after tomorrow, 28 September, Thursday

    Time Temperature Precipitation Wind Pressure Humidity
    00:00 +6°C° 0 mm 2 mps 651 mmHg 89%
    01:00 +6°C° 0 mm 2 mps 651 mmHg 88%
    02:00 +6°C° 0 mm 2 mps 651 mmHg 87%
    03:00 +6°C° 0 mm 2 mps 651 mmHg 87%
    04:00 +5°C° 0 mm 2 mps 651 mmHg 86%
    05:00 +6°C° 0 mm 2 mps 651 mmHg 85%
    06:00 +7°C° 0 mm 1 mps 651 mmHg 83%
    07:00 +7°C° 0 mm 1 mps 651 mmHg 82%
    08:00 +10°C° 0 mm 1 mps 652 mmHg 74%
    09:00 +12°C° 0 mm 1 mps 653 mmHg 66%
    10:00 +14°C° 0 mm 0 mps 653 mmHg 58%
    11:00 +15°C° 0 mm 1 mps 653 mmHg 56%
    12:00 +16°C° 0 mm 1 mps 653 mmHg 54%
    13:00 +18°C° 0 mm 1 mps 653 mmHg 53%
    14:00 +16°C° 0.1 mm 1 mps 653 mmHg 57%
    15:00 +16°C° 0.1 mm 1 mps 653 mmHg 61%
    16:00 +15°C° 0.1 mm 1 mps 653 mmHg 65%
    17:00 +14°C° 0.4 mm 1 mps 652 mmHg 72%
    18:00 +12°C° 0.4 mm 1 mps 652 mmHg 79%
    19:00 +10°C° 0.4 mm 1 mps 652 mmHg 87%
    20:00 +9°C° 0.1 mm 1 mps 652 mmHg 87%
    21:00 +9°C° 0.1 mm 1 mps 652 mmHg 87%
    22:00 +9°C° 0.1 mm 1 mps 652 mmHg 88%
    23:00 +8°C° 0 mm 1 mps 651 mmHg 88%

    29 September, Friday

    Time Temperature Precipitation Wind Pressure Humidity
    00:00 +8°C° 0 mm 1 mps 651 mmHg 88%
    01:00 +8°C° 0 mm 1 mps 651 mmHg 88%
    02:00 +7°C° 0 mm 1 mps 651 mmHg 88%
    03:00 +7°C° 0 mm 1 mps 650 mmHg 88%
    04:00 +7°C° 0 mm 1 mps 650 mmHg 88%
    05:00 +7°C° 0 mm 1 mps 650 mmHg 87%
    06:00 +7°C° 0 mm 1 mps 650 mmHg 86%
    07:00 +7°C° 0 mm 1 mps 650 mmHg 86%
    08:00 +10°C° 0 mm 1 mps 651 mmHg 77%
    09:00 +12°C° 0 mm 1 mps 652 mmHg 68%
    10:00 +14°C° 0 mm 0 mps 652 mmHg 59%
    11:00 +15°C° 0 mm 0 mps 652 mmHg 56%
    12:00 +16°C° 0 mm 1 mps 652 mmHg 52%
    13:00 +18°C° 0 mm 1 mps 652 mmHg 49%
    14:00 +18°C° 0 mm 1 mps 652 mmHg 52%
    15:00 +16°C° 0 mm 1 mps 651 mmHg 55%
    16:00 +16°C° 0 mm 1 mps 651 mmHg 58%
    17:00 +14°C° 0 mm 1 mps 651 mmHg 67%
    18:00 +11°C° 0 mm 1 mps 650 mmHg 76%
    19:00 +9°C° 0 mm 1 mps 650 mmHg 85%
    20:00 +9°C° 0 mm 1 mps 649 mmHg 85%
    21:00 +9°C° 0 mm 1 mps 649 mmHg 85%
    22:00 +8°C° 0 mm 1 mps 649 mmHg 84%
    23:00 +8°C° 0 mm 1 mps 649 mmHg 82%

    30 September, Saturday

    Time Temperature Precipitation Wind Pressure Humidity
    00:00 +8°C° 0 mm 1 mps 649 mmHg 81%
    01:00 +8°C° 0 mm 1 mps 649 mmHg 79%
    02:00 +8°C° 0 mm 1 mps 648 mmHg 79%
    03:00 +8°C° 0 mm 1 mps 648 mmHg 79%
    04:00 +8°C° 0 mm 1 mps 648 mmHg 78%
    05:00 +8°C° 0.2 mm 1 mps 648 mmHg 80%
    06:00 +8°C° 0.2 mm 1 mps 648 mmHg 81%
    07:00 +8°C° 0.2 mm 1 mps 648 mmHg 83%
    08:00 +10°C° 0.2 mm 1 mps 648 mmHg 80%
    09:00 +11°C° 0.2 mm 1 mps 648 mmHg 76%
    10:00 +12°C° 0.2 mm 1 mps 648 mmHg 73%
    11:00 +12°C° 0.4 mm 1 mps 648 mmHg 75%
    12:00 +12°C° 0.4 mm 1 mps 648 mmHg 77%
    13:00 +12°C° 0.4 mm 1 mps 647 mmHg 78%
    14:00 +11°C° 0.6 mm 1 mps 647 mmHg 83%
    15:00 +10°C° 0.6 mm 2 mps 647 mmHg 87%
    16:00 +9°C° 0.6 mm 2 mps 647 mmHg 92%
    17:00 +9°C° 0.5 mm 2 mps 647 mmHg 94%
    18:00 +8°C° 0.5 mm 2 mps 647 mmHg 95%
    19:00 +8°C° 0.5 mm 2 mps 647 mmHg 97%
    20:00 +7°C° 0.6 mm 2 mps 647 mmHg 97%
    21:00 +7°C° 0.6 mm 2 mps 647 mmHg 97%
    22:00 +7°C° 0.6 mm 2 mps 647 mmHg 98%
    23:00 +7°C° 0.5 mm 2 mps 647 mmHg 98%

    1 October, Sunday

    Time Temperature Precipitation Wind Pressure Humidity
    00:00 +8°C° 0.5 mm 1 mps 647 mmHg 98%
    01:00 +7°C° 0.5 mm 1 mps 647 mmHg 97%
    02:00 +7°C° 0.3 mm 1 mps 647 mmHg 97%
    03:00 +7°C° 0.3 mm 1 mps 646 mmHg 97%
    04:00 +5°C° 0.3 mm 0 mps 646 mmHg 97%
    05:00 +6°C° 0.1 mm 1 mps 646 mmHg 98%
    06:00 +6°C° 0.1 mm 1 mps 646 mmHg 98%
    07:00 +6°C° 0.1 mm 1 mps 646 mmHg 98%
    08:00 +7°C° 0 mm 1 mps 646 mmHg 95%
    09:00 +7°C° 0 mm 1 mps 647 mmHg 93%
    10:00 +8°C° 0 mm 1 mps 647 mmHg 91%
    11:00 +9°C° 0.1 mm 1 mps 647 mmHg 86%
    12:00 +10°C° 0.1 mm 1 mps 647 mmHg 82%
    13:00 +10°C° 0.1 mm 1 mps 647 mmHg 77%
    14:00 +10°C° 0.1 mm 1 mps 646 mmHg 77%
    15:00 +10°C° 0.1 mm 1 mps 646 mmHg 77%
    16:00 +10°C° 0.1 mm 1 mps 646 mmHg 77%
    17:00 +9°C° 0 mm 1 mps 646 mmHg 82%
    18:00 +8°C° 0 mm 1 mps 646 mmHg 88%
    19:00 +6°C° 0 mm 1 mps 645 mmHg 93%
    20:00 +6°C° 0 mm 1 mps 645 mmHg 93%
    21:00 +6°C° 0 mm 1 mps 645 mmHg 94%
    22:00 +5°C° 0 mm 1 mps 645 mmHg 94%
    23:00 +5°C° 0 mm 1 mps 645 mmHg 93%
    Show more